| time (UTC) | temp F | wind direction | speed knots | gust knots | rain 1hr in | rain 24hr in | rain mn in | humidity % | barometer mb |
| 20260508064455 | 52 | 267 | 0.0 | 0.0 | 0.00 | 0.80 | 0.00 | 93 | 1014.8 |
| 20260508063955 | 52 | 267 | 0.0 | 0.0 | 0.00 | 0.80 | 0.00 | 93 | 1014.9 |
| 20260508063455 | 52 | 267 | 0.0 | 0.0 | 0.00 | 0.80 | 0.00 | 93 | 1014.8 |
| 20260508062455 | 52 | 267 | 0.0 | 0.0 | 0.00 | 0.80 | 0.00 | 92 | 1014.9 |
| 20260508061955 | 52 | 267 | 0.0 | 0.0 | 0.00 | 0.80 | 0.00 | 92 | 1014.9 |
| 20260508061455 | 52 | 267 | 0.0 | 0.9 | 0.00 | 0.80 | 0.00 | 92 | 1014.9 |
| 20260508060955 | 52 | 267 | 0.0 | 1.7 | 0.00 | 0.80 | 0.00 | 92 | 1014.9 |
| 20260508060455 | 52 | 267 | 0.9 | 1.7 | 0.00 | 0.80 | 0.00 | 92 | 1015.0 |
| 20260508055958 | 52 | 267 | 0.9 | 1.7 | 0.00 | 0.80 | 0.00 | 92 | 1014.7 |
| 20260508055455 | 53 | 267 | 0.9 | 1.7 | 0.00 | 0.96 | 0.00 | 92 | 1014.6 |
| 20260508054955 | 53 | 267 | 0.0 | 1.7 | 0.00 | 0.96 | 0.00 | 92 | 1014.5 |
| 20260508054455 | 53 | 267 | 0.9 | 1.7 | 0.00 | 0.96 | 0.00 | 92 | 1014.8 |
| 20260508053956 | 53 | 267 | 0.9 | 1.7 | 0.00 | 0.96 | 0.00 | 92 | 1014.6 |
| 20260508053455 | 53 | 267 | 0.0 | 0.0 | 0.00 | 0.96 | 0.00 | 92 | 1014.7 |
| 20260508052955 | 53 | 267 | 0.0 | 0.0 | 0.00 | 0.96 | 0.00 | 92 | 1014.3 |
| 20260508052455 | 53 | 267 | 0.0 | 0.0 | 0.00 | 0.96 | 0.00 | 92 | 1014.4 |
| 20260508051455 | 53 | 267 | 0.0 | 0.0 | 0.00 | 0.96 | 0.00 | 92 | 1014.4 |
| 20260508050955 | 53 | 267 | 0.0 | 0.0 | 0.00 | 0.96 | 0.00 | 92 | 1014.5 |
| 20260508045958 | 53 | 267 | 0.0 | 0.9 | 0.00 | 0.96 | 0.00 | 92 | 1014.5 |
| 20260508045455 | 53 | 267 | 0.0 | 0.9 | 0.00 | 1.17 | 0.00 | 92 | 1014.4 |
| 20260508044955 | 53 | 267 | 0.0 | 0.9 | 0.00 | 1.17 | 0.00 | 92 | 1014.5 |
| 20260508043955 | 54 | 267 | 0.9 | 0.9 | 0.00 | 1.17 | 0.00 | 92 | 1014.4 |
| 20260508043455 | 54 | 267 | 0.0 | 1.7 | 0.00 | 1.17 | 0.00 | 92 | 1014.5 |
| 20260508042955 | 54 | 267 | 0.9 | 1.7 | 0.00 | 1.17 | 0.00 | 92 | 1014.5 |
| 20260508042455 | 54 | 267 | 0.9 | 1.7 | 0.00 | 1.17 | 0.00 | 92 | 1014.5 |
| 20260508041955 | 54 | 267 | 0.0 | 2.6 | 0.00 | 1.17 | 0.00 | 92 | 1014.4 |
| 20260508041455 | 54 | 267 | 0.9 | 2.6 | 0.00 | 1.17 | 0.00 | 92 | 1014.6 |
| 20260508040956 | 54 | 267 | 1.7 | 3.5 | 0.00 | 1.17 | 0.00 | 92 | 1014.5 |
| 20260508040456 | 54 | 267 | 0.9 | 3.5 | 0.00 | 1.17 | 0.00 | 92 | 1014.3 |
| 20260508035458 | 54 | 254 | 1.7 | 3.5 | 0.00 | 1.17 | 1.17 | 92 | 1014.5 |
| 20260508034958 | 54 | 284 | 0.9 | 2.6 | 0.00 | 1.17 | 1.17 | 91 | 1014.2 |
| 20260508034458 | 54 | 284 | 1.7 | 2.6 | 0.00 | 1.17 | 1.17 | 91 | 1014.2 |
| 20260508033958 | 54 | 340 | 0.9 | 2.6 | 0.00 | 1.17 | 1.17 | 91 | 1014.0 |
| 20260508032959 | 54 | 342 | 0.9 | 3.5 | 0.00 | 1.17 | 1.17 | 91 | 1013.8 |
| 20260508032458 | 54 | 321 | 0.9 | 3.5 | 0.00 | 1.17 | 1.17 | 91 | 1013.9 |
| 20260508031458 | 54 | 324 | 0.0 | 0.0 | 0.00 | 1.17 | 1.17 | 91 | 1013.9 |
| 20260508030958 | 54 | 324 | 0.0 | 0.0 | 0.00 | 1.17 | 1.17 | 91 | 1013.6 |
| 20260508030458 | 54 | 324 | 0.0 | 0.0 | 0.00 | 1.17 | 1.17 | 91 | 1013.5 |
| 20260508025458 | 54 | 324 | 0.0 | 0.0 | 0.00 | 1.17 | 1.17 | 91 | 1013.5 |
| 20260508024458 | 54 | 324 | 0.0 | 1.7 | 0.00 | 1.17 | 1.17 | 91 | 1013.6 |
| 20260508023958 | 54 | 324 | 0.9 | 2.6 | 0.00 | 1.17 | 1.17 | 91 | 1013.6 |
| 20260508022958 | 53 | 324 | 0.9 | 2.6 | 0.00 | 1.17 | 1.17 | 91 | 1013.5 |
| 20260508021958 | 53 | 324 | 0.9 | 1.7 | 0.00 | 1.17 | 1.17 | 91 | 1013.3 |
| 20260508021458 | 53 | 324 | 0.9 | 1.7 | 0.00 | 1.17 | 1.17 | 91 | 1013.5 |
| 20260508020958 | 53 | 324 | 0.0 | 0.9 | 0.01 | 1.17 | 1.17 | 91 | 1013.4 |
| 20260508020458 | 53 | 324 | 0.0 | 1.7 | 0.01 | 1.17 | 1.17 | 90 | 1013.3 |
| 20260508014958 | 53 | 330 | 2.6 | 4.3 | 0.01 | 1.17 | 1.17 | 90 | 1013.1 |
| 20260508014458 | 53 | 323 | 0.9 | 4.3 | 0.01 | 1.17 | 1.17 | 90 | 1013.2 |
| 20260508013958 | 53 | 34 | 0.9 | 4.3 | 0.01 | 1.17 | 1.17 | 90 | 1013.1 |
| 20260508013458 | 53 | 13 | 1.7 | 3.5 | 0.01 | 1.17 | 1.17 | 90 | 1013.1 |
| 20260508012958 | 53 | 339 | 0.9 | 4.3 | 0.01 | 1.17 | 1.17 | 90 | 1012.8 |
| 20260508012458 | 53 | 5 | 0.9 | 5.2 | 0.01 | 1.17 | 1.17 | 90 | 1012.6 |
| 20260508011958 | 53 | 5 | 2.6 | 5.2 | 0.01 | 1.17 | 1.17 | 90 | 1012.4 |
| 20260508011458 | 54 | 360 | 2.6 | 4.3 | 0.01 | 1.17 | 1.17 | 90 | 1012.1 |
| 20260508010958 | 54 | 346 | 1.7 | 4.3 | 0.00 | 1.16 | 1.16 | 90 | 1012.2 |
| 20260508010001 | 54 | 345 | 3.5 | 7.0 | 0.00 | 1.16 | 1.16 | 89 | 1012.6 |
| 20260508005458 | 54 | 321 | 2.6 | 4.3 | 0.00 | 1.16 | 1.16 | 89 | 1012.8 |
| 20260508004958 | 54 | 360 | 2.6 | 4.3 | 0.00 | 1.16 | 1.16 | 88 | 1012.1 |
| 20260508004458 | 54 | 41 | 2.6 | 4.3 | 0.00 | 1.16 | 1.16 | 88 | 1012.2 |
| 20260508003958 | 54 | 360 | 2.6 | 4.3 | 0.00 | 1.16 | 1.16 | 88 | 1012.4 |
| 20260508003458 | 54 | 333 | 0.9 | 5.2 | 0.00 | 1.16 | 1.16 | 87 | 1012.8 |
| 20260508002958 | 54 | 351 | 3.5 | 5.2 | 0.00 | 1.16 | 1.16 | 87 | 1012.3 |
| 20260508001959 | 54 | 46 | 3.5 | 7.0 | 0.00 | 1.16 | 1.16 | 87 | 1011.5 |
| 20260508001458 | 54 | 65 | 2.6 | 5.2 | 0.00 | 1.16 | 1.16 | 87 | 1011.6 |
| 20260508000958 | 54 | 42 | 1.7 | 5.2 | 0.00 | 1.16 | 1.16 | 88 | 1011.7 |
| 20260508000458 | 54 | 19 | 2.6 | 5.2 | 0.00 | 1.16 | 1.16 | 87 | 1011.6 |
| 20260508000001 | 55 | 350 | 3.5 | 7.0 | 0.00 | 1.16 | 1.16 | 87 | 1011.4 |
| 20260507235458 | 54 | 21 | 3.5 | 7.8 | 0.00 | 1.16 | 1.16 | 87 | 1011.3 |
| 20260507234959 | 55 | 65 | 2.6 | 7.8 | 0.00 | 1.16 | 1.16 | 87 | 1011.2 |
| 20260507234458 | 55 | 360 | 2.6 | 7.8 | 0.00 | 1.16 | 1.16 | 87 | 1011.4 |
| 20260507233958 | 55 | 24 | 3.5 | 7.0 | 0.00 | 1.16 | 1.16 | 87 | 1011.3 |
| 20260507233458 | 54 | 31 | 3.5 | 8.7 | 0.00 | 1.16 | 1.16 | 87 | 1011.3 |
| 20260507232958 | 55 | 29 | 3.5 | 9.6 | 0.00 | 1.16 | 1.16 | 87 | 1011.3 |
| 20260507232458 | 54 | 330 | 3.5 | 8.7 | 0.00 | 1.16 | 1.16 | 87 | 1011.3 |
| 20260507231958 | 54 | 338 | 3.5 | 7.8 | 0.00 | 1.16 | 1.16 | 87 | 1011.3 |
| 20260507231459 | 54 | 346 | 4.3 | 7.8 | 0.00 | 1.16 | 1.16 | 88 | 1011.3 |
| 20260507230458 | 54 | 342 | 5.2 | 8.7 | 0.00 | 1.16 | 1.16 | 88 | 1011.2 |
| 20260507230000 | 54 | 46 | 4.3 | 7.8 | 0.00 | 1.16 | 1.16 | 88 | 1011.2 |
| 20260507225457 | 54 | 344 | 3.5 | 8.7 | 0.00 | 1.16 | 1.16 | 88 | 1011.2 |
| 20260507224957 | 54 | 5 | 4.3 | 8.7 | 0.00 | 1.16 | 1.16 | 88 | 1010.9 |
| 20260507224457 | 54 | 40 | 2.6 | 7.8 | 0.00 | 1.16 | 1.16 | 88 | 1010.9 |
| 20260507223957 | 54 | 30 | 3.5 | 10.4 | 0.00 | 1.16 | 1.16 | 88 | 1010.6 |
| 20260507223458 | 54 | 53 | 4.3 | 10.4 | 0.00 | 1.16 | 1.16 | 89 | 1010.7 |
| 20260507222957 | 54 | 21 | 6.1 | 11.3 | 0.00 | 1.16 | 1.16 | 89 | 1010.7 |
| 20260507222457 | 54 | 333 | 4.3 | 11.3 | 0.00 | 1.16 | 1.16 | 89 | 1010.8 |
| 20260507221457 | 54 | 349 | 5.2 | 11.3 | 0.00 | 1.16 | 1.16 | 89 | 1010.7 |
| 20260507220957 | 55 | 342 | 6.1 | 11.3 | 0.00 | 1.16 | 1.16 | 89 | 1010.9 |
| 20260507220001 | 55 | 355 | 7.0 | 12.2 | 0.00 | 1.16 | 1.16 | 89 | 1010.8 |
| 20260507215457 | 55 | 10 | 4.3 | 13.9 | 0.00 | 1.16 | 1.16 | 89 | 1010.8 |
| 20260507214957 | 55 | 326 | 7.8 | 13.9 | 0.00 | 1.16 | 1.16 | 89 | 1010.6 |
| 20260507214457 | 56 | 336 | 4.3 | 11.3 | 0.00 | 1.16 | 1.16 | 90 | 1010.5 |
| 20260507213957 | 56 | 44 | 7.8 | 11.3 | 0.00 | 1.16 | 1.16 | 89 | 1010.3 |
| 20260507213457 | 56 | 40 | 5.2 | 12.2 | 0.00 | 1.16 | 1.16 | 89 | 1010.2 |
| 20260507212957 | 56 | 19 | 6.1 | 12.2 | 0.00 | 1.16 | 1.16 | 89 | 1010.1 |
| 20260507212457 | 56 | 335 | 6.1 | 12.2 | 0.00 | 1.16 | 1.16 | 88 | 1009.9 |
| 20260507211957 | 57 | 355 | 6.1 | 12.2 | 0.00 | 1.16 | 1.16 | 88 | 1010.0 |
| 20260507211457 | 57 | 25 | 7.8 | 11.3 | 0.00 | 1.16 | 1.16 | 88 | 1009.9 |
| 20260507210957 | 58 | 27 | 4.3 | 9.6 | 0.00 | 1.16 | 1.16 | 89 | 1009.8 |
| 20260507210459 | 58 | 331 | 4.3 | 9.6 | 0.00 | 1.16 | 1.16 | 88 | 1009.7 |
| 20260507204957 | 59 | 24 | 6.1 | 10.4 | 0.00 | 1.16 | 1.16 | 89 | 1009.5 |
| 20260507204457 | 59 | 321 | 4.3 | 10.4 | 0.00 | 1.16 | 1.16 | 89 | 1009.5 |
| 20260507203957 | 59 | 340 | 7.0 | 10.4 | 0.00 | 1.16 | 1.16 | 88 | 1009.4 |
| 20260507203457 | 60 | 26 | 3.5 | 12.2 | 0.00 | 1.16 | 1.16 | 89 | 1009.4 |
| 20260507202957 | 60 | 20 | 7.0 | 12.2 | 0.00 | 1.16 | 1.16 | 89 | 1009.4 |
| 20260507201957 | 60 | 342 | 6.1 | 13.9 | 0.00 | 1.16 | 1.16 | 89 | 1009.4 |
| 20260507201457 | 60 | 330 | 5.2 | 13.9 | 0.00 | 1.16 | 1.16 | 90 | 1009.2 |
| 20260507200957 | 60 | 242 | 6.1 | 12.2 | 0.00 | 1.16 | 1.16 | 89 | 1009.5 |
| 20260507200457 | 60 | 355 | 7.8 | 12.2 | 0.00 | 1.16 | 1.16 | 89 | 1009.5 |
| 20260507200000 | 60 | 69 | 3.5 | 13.9 | 0.00 | 1.16 | 1.16 | 90 | 1009.5 |
| 20260507194458 | 61 | 335 | 8.7 | 13.9 | 0.00 | 1.16 | 1.16 | 88 | 1009.2 |
| 20260507193957 | 61 | 313 | 4.3 | 10.4 | 0.00 | 1.16 | 1.16 | 88 | 1009.4 |
| 20260507193457 | 62 | 311 | 7.0 | 13.0 | 0.00 | 1.16 | 1.16 | 87 | 1009.2 |
| 20260507191957 | 66 | 336 | 7.0 | 12.2 | 0.00 | 1.16 | 1.16 | 82 | 1009.0 |
| 20260507190957 | 73 | 276 | 7.0 | 10.4 | 0.00 | 1.16 | 1.16 | 79 | 1008.3 |
| 20260507190457 | 73 | 289 | 1.7 | 6.1 | 0.00 | 1.16 | 1.16 | 83 | 1007.9 |
| 20260507184957 | 72 | 246 | 4.3 | 7.0 | 0.00 | 1.16 | 1.16 | 86 | 1008.5 |
| 20260507184457 | 72 | 200 | 3.5 | 6.1 | 0.00 | 1.16 | 1.16 | 88 | 1008.8 |
| 20260507183957 | 72 | 184 | 1.7 | 4.3 | 0.00 | 1.16 | 1.16 | 89 | 1009.0 |
| 20260507183457 | 71 | 278 | 1.7 | 6.1 | 0.00 | 1.16 | 1.16 | 90 | 1008.8 |
| 20260507182958 | 71 | 205 | 1.7 | 6.1 | 0.00 | 1.16 | 1.16 | 91 | 1008.9 |
| 20260507182457 | 71 | 240 | 2.6 | 5.2 | 0.01 | 1.16 | 1.16 | 91 | 1008.9 |
| 20260507181957 | 71 | 233 | 2.6 | 5.2 | 0.01 | 1.16 | 1.16 | 91 | 1008.9 |
| 20260507181458 | 70 | 225 | 1.7 | 4.3 | 0.01 | 1.16 | 1.16 | 91 | 1009.0 |
| 20260507180958 | 70 | 161 | 2.6 | 9.6 | 0.01 | 1.16 | 1.16 | 90 | 1009.1 |
| 20260507180459 | 70 | 277 | 3.5 | 9.6 | 0.01 | 1.16 | 1.16 | 90 | 1009.2 |
| 20260507180000 | 70 | 266 | 3.5 | 9.6 | 0.01 | 1.16 | 1.16 | 90 | 1009.1 |
| 20260507175457 | 70 | 249 | 2.6 | 6.1 | 0.01 | 1.16 | 1.16 | 90 | 1009.0 |
| 20260507174959 | 70 | 221 | 2.6 | 6.1 | 0.01 | 1.16 | 1.16 | 91 | 1008.9 |
| 20260507174457 | 70 | 249 | 1.7 | 3.5 | 0.01 | 1.16 | 1.16 | 92 | 1008.8 |
| 20260507173958 | 70 | 234 | 1.7 | 5.2 | 0.01 | 1.16 | 1.16 | 92 | 1008.8 |
| 20260507173457 | 70 | 225 | 3.5 | 5.2 | 0.01 | 1.16 | 1.16 | 91 | 1008.7 |
| 20260507172957 | 70 | 123 | 2.6 | 4.3 | 0.01 | 1.16 | 1.16 | 92 | 1008.4 |
| 20260507171958 | 69 | 205 | 2.6 | 5.2 | 0.01 | 1.15 | 1.15 | 92 | 1009.1 |
| 20260507171457 | 69 | 184 | 2.6 | 4.3 | 0.01 | 1.15 | 1.15 | 93 | 1009.1 |
| 20260507170457 | 69 | 182 | 1.7 | 2.6 | 0.01 | 1.15 | 1.15 | 93 | 1009.3 |
| 20260507170000 | 69 | 182 | 0.9 | 2.6 | 0.01 | 1.15 | 1.15 | 93 | 1009.4 |
| 20260507164457 | 68 | 198 | 1.7 | 6.1 | 0.02 | 1.15 | 1.15 | 92 | 1010.0 |
| 20260507163957 | 68 | 239 | 1.7 | 6.1 | 0.02 | 1.15 | 1.15 | 92 | 1010.1 |
| 20260507163456 | 68 | 235 | 1.7 | 5.2 | 0.02 | 1.15 | 1.15 | 92 | 1010.1 |
| 20260507162957 | 68 | 160 | 2.6 | 9.6 | 0.02 | 1.15 | 1.15 | 92 | 1010.1 |
| 20260507162457 | 68 | 286 | 1.7 | 9.6 | 0.03 | 1.15 | 1.15 | 92 | 1010.2 |
| 20260507161457 | 68 | 198 | 2.6 | 4.3 | 0.03 | 1.14 | 1.14 | 93 | 1010.3 |
| 20260507160957 | 68 | 234 | 1.7 | 6.1 | 0.04 | 1.14 | 1.14 | 93 | 1010.3 |
| 20260507160457 | 68 | 232 | 0.9 | 3.5 | 0.05 | 1.14 | 1.14 | 93 | 1010.2 |
| 20260507160000 | 68 | 183 | 2.6 | 4.3 | 0.07 | 1.14 | 1.14 | 93 | 1010.1 |
| 20260507155457 | 68 | 74 | 0.0 | 3.5 | 0.08 | 1.14 | 1.14 | 93 | 1010.0 |
| 20260507154957 | 68 | 139 | 1.7 | 3.5 | 0.09 | 1.13 | 1.13 | 93 | 1010.1 |
| 20260507154457 | 68 | 173 | 1.7 | 4.3 | 0.11 | 1.13 | 1.13 | 93 | 1010.1 |
| 20260507153457 | 68 | 190 | 0.9 | 2.6 | 0.18 | 1.13 | 1.13 | 93 | 1010.1 |
| 20260507152957 | 68 | 213 | 0.0 | 1.7 | 0.22 | 1.13 | 1.13 | 93 | 1010.2 |
| 20260507151957 | 67 | 192 | 0.9 | 2.6 | 0.25 | 1.12 | 1.12 | 93 | 1010.4 |
| 20260507151457 | 67 | 265 | 1.7 | 4.3 | 0.26 | 1.11 | 1.11 | 93 | 1010.6 |
| 20260507150958 | 67 | 273 | 0.9 | 4.3 | 0.26 | 1.10 | 1.10 | 93 | 1010.5 |
| 20260507150457 | 67 | 267 | 1.7 | 5.2 | 0.25 | 1.09 | 1.09 | 93 | 1010.7 |
| 20260507145959 | 67 | 257 | 1.7 | 3.5 | 0.24 | 1.07 | 1.07 | 93 | 1010.9 |
| 20260507144956 | 67 | 250 | 2.6 | 6.1 | 0.21 | 1.04 | 1.04 | 93 | 1010.9 |
| 20260507144456 | 67 | 273 | 3.5 | 6.1 | 0.20 | 1.02 | 1.02 | 93 | 1011.0 |
| 20260507143956 | 67 | 257 | 2.6 | 7.0 | 0.16 | 0.98 | 0.98 | 92 | 1010.9 |
| 20260507143456 | 68 | 221 | 2.6 | 6.1 | 0.14 | 0.95 | 0.95 | 92 | 1011.0 |
| 20260507142956 | 68 | 234 | 2.6 | 5.2 | 0.11 | 0.91 | 0.91 | 92 | 1010.9 |
| 20260507142456 | 68 | 200 | 2.6 | 7.8 | 0.09 | 0.89 | 0.89 | 92 | 1011.0 |
| 20260507141956 | 68 | 221 | 1.7 | 7.8 | 0.07 | 0.87 | 0.87 | 92 | 1010.9 |
| 20260507141456 | 68 | 223 | 2.6 | 6.1 | 0.05 | 0.85 | 0.85 | 91 | 1011.0 |
| 20260507140957 | 68 | 248 | 3.5 | 8.7 | 0.04 | 0.84 | 0.84 | 91 | 1010.9 |
| 20260507140456 | 68 | 238 | 4.3 | 8.7 | 0.04 | 0.84 | 0.84 | 91 | 1010.9 |
| 20260507135959 | 68 | 236 | 1.7 | 7.0 | 0.03 | 0.83 | 0.83 | 91 | 1010.8 |
| 20260507135456 | 68 | 251 | 2.6 | 9.6 | 0.03 | 0.83 | 0.83 | 91 | 1010.7 |
| 20260507134956 | 68 | 170 | 1.7 | 8.7 | 0.03 | 0.83 | 0.83 | 91 | 1010.7 |
| 20260507134456 | 68 | 248 | 4.3 | 8.7 | 0.02 | 0.82 | 0.82 | 91 | 1010.7 |
| 20260507133958 | 68 | 223 | 4.3 | 8.7 | 0.02 | 0.82 | 0.82 | 91 | 1010.8 |
| 20260507133456 | 69 | 240 | 3.5 | 7.0 | 0.01 | 0.81 | 0.81 | 91 | 1010.9 |
| 20260507132956 | 69 | 202 | 1.7 | 5.2 | 0.00 | 0.80 | 0.80 | 92 | 1010.5 |
| 20260507131956 | 69 | 312 | 1.7 | 5.2 | 0.00 | 0.80 | 0.80 | 92 | 1010.4 |
| 20260507130956 | 68 | 155 | 2.6 | 5.2 | 0.00 | 0.80 | 0.80 | 92 | 1010.5 |
| 20260507130456 | 68 | 155 | 2.6 | 6.1 | 0.00 | 0.80 | 0.80 | 92 | 1010.4 |
| 20260507125959 | 68 | 237 | 2.6 | 6.1 | 0.00 | 0.80 | 0.80 | 92 | 1010.5 |
| 20260507124956 | 68 | 192 | 4.3 | 7.0 | 0.00 | 0.80 | 0.80 | 93 | 1010.5 |
| 20260507123455 | 67 | 205 | 2.6 | 9.6 | 0.01 | 0.80 | 0.80 | 93 | 1010.8 |
| 20260507122956 | 67 | 196 | 5.2 | 9.6 | 0.01 | 0.80 | 0.80 | 93 | 1010.9 |
| 20260507122457 | 67 | 180 | 4.3 | 7.8 | 0.01 | 0.80 | 0.80 | 93 | 1011.1 |
| 20260507121955 | 67 | 157 | 4.3 | 7.0 | 0.01 | 0.80 | 0.80 | 93 | 1011.2 |
| 20260507121456 | 67 | 159 | 4.3 | 7.0 | 0.01 | 0.80 | 0.80 | 93 | 1011.2 |
| 20260507120957 | 67 | 239 | 2.6 | 7.8 | 0.01 | 0.80 | 0.80 | 93 | 1011.3 |
| 20260507120456 | 67 | 190 | 3.5 | 7.8 | 0.01 | 0.80 | 0.80 | 94 | 1011.2 |
| 20260507115959 | 67 | 185 | 3.5 | 9.6 | 0.01 | 0.80 | 0.80 | 94 | 1011.3 |
| 20260507115455 | 67 | 187 | 2.6 | 9.6 | 0.01 | 0.80 | 0.80 | 94 | 1011.5 |
| 20260507114956 | 67 | 260 | 2.6 | 7.0 | 0.02 | 0.80 | 0.80 | 94 | 1011.5 |
| 20260507114456 | 67 | 203 | 3.5 | 7.0 | 0.03 | 0.80 | 0.80 | 94 | 1011.4 |
| 20260507113956 | 67 | 186 | 2.6 | 7.0 | 0.04 | 0.80 | 0.80 | 94 | 1011.6 |
| 20260507113458 | 67 | 182 | 1.7 | 4.3 | 0.04 | 0.79 | 0.79 | 94 | 1011.5 |
| 20260507112956 | 67 | 190 | 1.7 | 7.0 | 0.04 | 0.79 | 0.79 | 94 | 1011.5 |
| 20260507112455 | 66 | 167 | 4.3 | 7.0 | 0.05 | 0.79 | 0.79 | 94 | 1011.5 |
| 20260507111956 | 66 | 207 | 1.7 | 6.1 | 0.06 | 0.79 | 0.79 | 94 | 1011.7 |
| 20260507111455 | 66 | 213 | 0.9 | 3.5 | 0.06 | 0.79 | 0.79 | 94 | 1011.7 |
| 20260507110956 | 66 | 185 | 1.7 | 4.3 | 0.07 | 0.79 | 0.79 | 94 | 1011.6 |
| 20260507110456 | 66 | 191 | 0.9 | 1.7 | 0.08 | 0.79 | 0.79 | 94 | 1011.6 |
| 20260507105959 | 66 | 191 | 0.0 | 2.6 | 0.08 | 0.79 | 0.79 | 94 | 1011.4 |
| 20260507105455 | 66 | 191 | 0.9 | 3.5 | 0.10 | 0.79 | 0.79 | 94 | 1011.3 |
| 20260507104956 | 66 | 154 | 0.9 | 2.6 | 0.09 | 0.78 | 0.78 | 94 | 1011.3 |
| 20260507104456 | 66 | 196 | 1.7 | 3.5 | 0.09 | 0.77 | 0.77 | 93 | 1011.4 |
| 20260507103956 | 66 | 192 | 0.9 | 3.5 | 0.09 | 0.76 | 0.76 | 93 | 1011.4 |
| 20260507103456 | 66 | 290 | 0.0 | 3.5 | 0.09 | 0.75 | 0.75 | 93 | 1011.3 |
| 20260507102956 | 66 | 290 | 0.0 | 3.5 | 0.09 | 0.75 | 0.75 | 93 | 1011.3 |
| 20260507101956 | 66 | 229 | 0.9 | 1.7 | 0.08 | 0.73 | 0.73 | 93 | 1011.2 |
| 20260507101456 | 66 | 142 | 0.0 | 1.7 | 0.09 | 0.73 | 0.73 | 93 | 1011.2 |
| 20260507100957 | 66 | 142 | 1.7 | 1.7 | 0.08 | 0.72 | 0.72 | 93 | 1011.1 |
| 20260507100455 | 66 | 186 | 0.0 | 2.6 | 0.07 | 0.71 | 0.71 | 93 | 1011.1 |
| 20260507095959 | 66 | 140 | 1.7 | 3.5 | 0.06 | 0.70 | 0.70 | 93 | 1011.1 |
| 20260507095456 | 66 | 286 | 0.9 | 3.5 | 0.08 | 0.69 | 0.69 | 93 | 1011.1 |
| 20260507094956 | 66 | 184 | 0.9 | 3.5 | 0.11 | 0.69 | 0.69 | 93 | 1011.1 |
| 20260507093956 | 66 | 204 | 1.7 | 4.3 | 0.16 | 0.67 | 0.67 | 93 | 1010.9 |
| 20260507093456 | 66 | 130 | 1.7 | 6.1 | 0.19 | 0.66 | 0.66 | 93 | 1011.1 |
| 20260507092956 | 66 | 167 | 2.6 | 6.1 | 0.22 | 0.66 | 0.66 | 93 | 1011.2 |
| 20260507092456 | 66 | 175 | 1.7 | 6.1 | 0.23 | 0.65 | 0.65 | 93 | 1011.3 |
| 20260507091957 | 66 | 232 | 3.5 | 7.0 | 0.24 | 0.65 | 0.65 | 93 | 1011.1 |
| 20260507090956 | 66 | 186 | 3.5 | 5.2 | 0.23 | 0.64 | 0.64 | 94 | 1011.1 |
| 20260507090457 | 66 | 173 | 2.6 | 6.1 | 0.24 | 0.64 | 0.64 | 94 | 1011.1 |
| 20260507085958 | 66 | 221 | 3.5 | 6.1 | 0.24 | 0.64 | 0.64 | 94 | 1011.2 |
| 20260507085457 | 66 | 228 | 1.7 | 7.0 | 0.22 | 0.61 | 0.61 | 93 | 1011.6 |
| 20260507084456 | 66 | 188 | 3.5 | 11.3 | 0.16 | 0.55 | 0.55 | 93 | 1011.6 |
| 20260507083956 | 66 | 229 | 2.6 | 7.8 | 0.13 | 0.51 | 0.51 | 93 | 1012.0 |
| 20260507083456 | 66 | 188 | 3.5 | 7.8 | 0.09 | 0.47 | 0.47 | 93 | 1012.1 |
| 20260507082956 | 66 | 196 | 0.9 | 3.5 | 0.06 | 0.44 | 0.44 | 93 | 1012.1 |
| 20260507082456 | 66 | 196 | 1.7 | 3.5 | 0.04 | 0.42 | 0.42 | 93 | 1012.0 |
| 20260507081456 | 66 | 196 | 1.7 | 2.6 | 0.03 | 0.41 | 0.41 | 93 | 1011.6 |
| 20260507080956 | 66 | 196 | 1.7 | 3.5 | 0.03 | 0.41 | 0.41 | 93 | 1011.7 |
| 20260507080455 | 66 | 196 | 1.7 | 3.5 | 0.02 | 0.40 | 0.40 | 93 | 1011.8 |
| 20260507075958 | 66 | 174 | 0.9 | 3.5 | 0.02 | 0.40 | 0.40 | 93 | 1011.9 |
| 20260507074956 | 66 | 175 | 1.7 | 2.6 | 0.01 | 0.39 | 0.39 | 93 | 1011.6 |
| 20260507074456 | 66 | 175 | 1.7 | 2.6 | 0.01 | 0.39 | 0.39 | 93 | 1011.8 |
| 20260507073956 | 66 | 175 | 0.9 | 1.7 | 0.00 | 0.38 | 0.38 | 93 | 1011.8 |
| 20260507073456 | 66 | 175 | 1.7 | 1.7 | 0.00 | 0.38 | 0.38 | 92 | 1012.0 |
| 20260507072955 | 66 | 175 | 0.9 | 0.9 | 0.00 | 0.38 | 0.38 | 92 | 1012.0 |
| 20260507072458 | 66 | 175 | 0.0 | 0.0 | 0.00 | 0.38 | 0.38 | 92 | 1012.0 |
| 20260507070956 | 66 | 175 | 0.0 | 1.7 | 0.00 | 0.38 | 0.38 | 92 | 1012.4 |
| 20260507070456 | 66 | 175 | 0.9 | 1.7 | 0.01 | 0.38 | 0.38 | 92 | 1012.3 |
| 20260507065454 | 66 | 175 | 0.0 | 0.9 | 0.01 | 0.38 | 0.38 | 92 | 1012.5 |
| 20260507064954 | 66 | 175 | 0.0 | 0.9 | 0.01 | 0.38 | 0.38 | 92 | 1012.5 |